Location: Gökben Yaylas?
(36.8988°N, 29.6291°E)
Time: 08:29:58
(UTC+00:00)

Cosmos 2026 Rocket - Pass Details

Date: 15 May 2026
Orbit: 939 x 999 km, 82.9° (Epoch: 5 June)

Event Time Altitude Azimuth Distance (km) Brightness Sun altitude
Rises 20:48:38 0° 348° (NNW) 3,727 8.2 -31.7°
Reaches altitude 10° 20:51:13 10° 345° (NNW) 2,774 7.2 -31.9°
Enters shadow 20:57:08 57° 279° (W) 1,165 4.4 -32.3°
